Regional Weather Roundup
Issued by NWS

Home | Current Version | Previous Version | Graphics & Text | Print | Product List | Glossary On
Versions: 1 2 3 4 5 6 7 8 9 10 11 12 13 14 15 16 17 18 19 20 21 22 23 24 25 26 27 28 29 30 31 32 33 34 35 36 37 38 39 40 41 42 43 44 45 46 47 48 49 50
000
ASUS43 KMPX 230601
RWRMN
WEATHER ROUNDUP FOR MINNESOTA
NATIONAL WEATHER SERVICE TWIN CITIES/CHANHASSEN MN
1200 AM CST THU FEB 23 2017


NOTE: "FAIR" INDICATES FEW OR NO CLOUDS BELOW 12,000 FEET WITH NO
SIGNIFICANT WEATHER AND/OR OBSTRUCTIONS TO VISIBILITY. N/A MEANS
CURRENT SKY AND/OR WEATHER CONDITIONS ARE NOT AVAILABLE.

MNZ060>063-068>070-230700-
   Twin Cities Metro

CITY           SKY/WX    TMP DP  RH WIND       PRES   REMARKS
TWIN CITIES    CLOUDY    38  31  76 N17G25    29.79R
6HR MIN TEMP:  38; 6HR MAX TEMP:  50;

ST PAUL        CLOUDY    36  35  96 N14       29.79R FOG
CRYSTAL        CLOUDY    37  29  72 N14       29.78R
BLAINE         CLOUDY    37  36  93 N16       29.79R
LAKEVILLE      CLOUDY    36  34  93 NW16G23   29.77R
EDEN PRAIRIE   CLOUDY    37  31  78 N16       29.78R
6HR MIN TEMP:  37; 6HR MAX TEMP:  48;

SOUTH ST PAUL  CLOUDY    37  33  85 N12G22    29.77R FOG
LAKE ELMO      CLOUDY    36  34  93 N10G21    29.78R
$$
MNZ001>005-007-008-013>017-022>024-027-028-230700-
   Northwest Minnesota

CITY           SKY/WX    TMP DP  RH WIND       PRES   REMARKS
BEMIDJI        CLOUDY    25  22  90 NW5       29.88R WCI  19
HALLOCK        CLOUDY    28  25  86 N9        29.97R WCI  20
ROSEAU         CLOUDY    27  19  74 N7        29.93R WCI  19
WARROAD        CLOUDY    27  19  74 N9        29.93R WCI  17
THIEF RVR FALL CLEAR     26  24  92 NW9       29.95R WCI  17
CROOKSTON      CLOUDY    30  27  86 N10       29.97R WCI  21
FOSSTON        CLEAR     27  25  93 NW8       29.92R WCI  18
DETROIT LAKES  CLEAR     28  27  93 N8        29.91R WCI  20
MOORHEAD       CLEAR     30  27  86 N13       29.96R WCI  20
PARK RAPIDS    CLEAR     25  20  81 NW6       29.87R WCI  18
MAHNOMEN       FAIR      29  26  86 NW10      29.92R WCI  20
$$
MNZ006-009>011-018-025>026-230700-
   North Central Minnesota

CITY           SKY/WX    TMP DP  RH WIND       PRES   REMARKS
BAUDETTE       PTCLDY    24  16  71 N14       29.89R WCI  12
FLAG ISLAND    CLOUDY    27  18  69 N18       29.91R WCI  13
INTL FALLS     MOCLDY    26  20  77 NW9       29.84R WCI  17
6HR MIN TEMP:  25; 6HR MAX TEMP:  32;

WASKISH        CLEAR     25  19  80 N7        29.89R WCI  17
BIG FORK       CLEAR     27  23  86 NW3       29.84R
LONGVILLE      CLEAR     27  25  93 NW5       29.86R WCI  21
GRAND RAPIDS   PTCLDY    27  24  89 N12       29.84R WCI  17
CRANE LAKE     CLOUDY    28  21  74 N5        29.83R WCI  23
ORR            CLOUDY    27  21  80 CALM      29.80R
COOK           PTCLDY    27  25  93 CALM      29.81R
WALKER         FAIR      24  22  93 W3        29.87R
$$
MNZ012-019>021-037-230700-
   Northeast Minnesota

CITY           SKY/WX    TMP DP  RH WIND       PRES   REMARKS
DULUTH         FLURRIES  33  30  88 N14       29.75R WCI  23
6HR MIN TEMP:  33; 6HR MAX TEMP:  37; 6HR PCP:  0.16;

ELY            CLOUDY    28  27  93 N5        29.77R WCI  23
HIBBING        CLOUDY    28  27  96 N10       29.80R WCI  19
EVELETH        PTCLDY    30  27  87 NW8       29.80R WCI  22
DULUTH HARBOR  MIX PCPN  34  34 100 CALM      29.79R
TWO HARBORS    CLOUDY    36  30  80 N3        29.74R
SILVER BAY     CLOUDY    34  30  86 CALM      29.73R
GRAND MARAIS     N/A     35  28  75 VRB3      29.73R
G MARAIS ARPRT CLOUDY    28  21  74 NW15G22   29.69R WCI  17
$$
MNZ029>031-032-039>041-046>048-054>057-064-230700-
   West Central Minnesota

CITY           SKY/WX    TMP DP  RH WIND       PRES   REMARKS
FERGUS FALLS   CLEAR     28  27  93 N8        29.96R WCI  20
WHEATON        PTCLDY    30  27  86 NW10      29.96R WCI  21
MORRIS         CLOUDY    34  28  80 N15       29.89S WCI  24
ALEXANDRIA     CLEAR     31  26  82 N12       29.88R WCI  22
ELBOW LAKE     FAIR      30  27  89 NW8       29.92R WCI  23
WADENA         CLEAR     27  25  93 NW7       29.88R WCI  19
GLENWOOD       PTCLDY    30  27  86 N10       29.88R WCI  21
APPLETON       CLOUDY    34  28  80 N17       29.90R WCI  23
BENSON         CLOUDY    36  28  75 N14       29.89S
ORTONVILLE     MOCLDY    30  27  86 N17       29.90S WCI  18
MADISON        CLOUDY    36  32  87 N14G20    29.91R
WILLMAR        CLOUDY    36  32  87 N16G26    29.86R
$$
MNZ033>034-036-042>043-049>051-058-059-230700-
   Central Minnesota

CITY           SKY/WX    TMP DP  RH WIND       PRES   REMARKS
ST CLOUD       CLOUDY    33  30  88 N14G22    29.82R WCI  23
6HR MIN TEMP:  33; 6HR MAX TEMP:  43; 6HR PCP: TRACE;

SAUK CENTRE    FAIR      30  25  81 N9G16     29.87R WCI  22
PAYNESVILLE    CLOUDY    32  28  84 NW12G20   29.86R WCI  23
AITKIN         MOCLDY    32  27  80 NW7       29.82R WCI  26
PINE RIVER     CLEAR     28  25  86 NW7       29.89R WCI  21
BRAINERD       PTCLDY    29  26  89 N10       29.85R WCI  20
STAPLES        CLEAR     27  25  93 NW7       29.87R WCI  19
LONG PRAIRIE   FAIR      30  27  86 NW9       29.87R WCI  22
LITTLE FALLS   MOCLDY    32  27  80 NW6       29.86R WCI  26
LITCHFIELD     CLOUDY    36  32  87 N15       29.84R
BUFFALO        CLOUDY    35  31  84 NW12      29.82R WCI  27
MAPLE LAKE     CLOUDY    36  32  88 NW16      29.83R
HUTCHINSON     CLOUDY    37  33  87 NW12      29.86R
$$
MNZ037-044-045-052-053-230700-
   East Central Minnesota

CITY           SKY/WX    TMP DP  RH WIND       PRES   REMARKS
PRINCETON      CLOUDY    36  30  80 NW12      29.81R
MORA           CLOUDY    34  30  86 N8G17     29.82R WCI  27
CAMBRIDGE      CLOUDY    37  30  75 NW8       29.78R
RUSH CITY      CLOUDY    34  32  93 N10       29.79R WCI  26
MOOSE LAKE     CLOUDY    32  30  93 NW10      29.77R WCI  24
HINCKLEY       CLOUDY    34  32  93 N12       29.79R WCI  25
CLOQUET        CLOUDY    34  30  86 NW12      29.77R WCI  25
MCGREGOR       PTCLDY    32  28  86 NW10      29.82R WCI  24
$$
MNZ071>073-080-081-089-090-097-098-230700-
   Southwest Minnesota

CITY           SKY/WX    TMP DP  RH WIND       PRES   REMARKS
MONTEVIDEO     CLOUDY    34  30  86 N13G20    29.91R WCI  25
GRANITE FALLS  CLOUDY    35  32  88 NW12G18   29.90S WCI  27
CANBY          CLOUDY    33  30  90 N14       29.92R WCI  23
MARSHALL       CLOUDY    32  30  92 N15       29.89R WCI  22
REDWOOD FALLS  CLOUDY    36  31  82 NW10G18   29.86R
OLIVIA         CLOUDY    36  32  87 N7        29.86R
PIPESTONE      CLOUDY    34  28  80 N13G18    29.87R WCI  25
WINDOM         CLOUDY    36  34  93 NW17      29.85R
WORTHINGTON    CLOUDY    33  32  96 N18       29.86S WCI  22
JACKSON          N/A     34  32  93 NW21G28   29.83F WCI  22
TRACY          CLOUDY    33  32  96 N15       29.88R WCI  23
SLAYTON        CLOUDY    31  31  99 N17G23    29.87R FOG     WCI  20
$$
MNZ065>067-074>077-082>085-091>093-230700-
   South Central Minnesota

CITY           SKY/WX    TMP DP  RH WIND       PRES   REMARKS
MANKATO          N/A     37  33  85 NW15      29.82R
NEW ULM        CLOUDY    36  30  80 NW16G25   29.84R
ST JAMES       CLOUDY    37  36  93 NW14      29.85R
FAIRMONT       CLOUDY    36  34  92 NW16      29.82R
GLENCOE        CLOUDY    37  34  90 NW10G17   29.83R
FARIBAULT      CLOUDY    37  36  93 NW9       29.78R
OWATONNA       CLOUDY    39  34  81 NW18      29.77R
WASECA         CLOUDY    37  36  93 NW15G21   29.79R
ALBERT LEA     CLOUDY    41  37  87 NW14G20   29.78R
$$
MNZ078>079-086>088-094>096-230700-
   Southeast Minnesota

CITY           SKY/WX    TMP DP  RH WIND       PRES   REMARKS
ROCHESTER      CLOUDY    41  38  89 NW22      29.73R
6HR MIN TEMP:  41; 6HR MAX TEMP:  50;

RED WING       CLOUDY    43  34  70 NW8       29.73R
STANTON        CLOUDY    40  36  84 NW17      29.75R
DODGE CENTER   PTCLDY    39  37  93 NW15G25   29.74R
WINONA         CLOUDY    46  39  76 NW17      29.69R
AUSTIN         CLOUDY    41  37  87 NW16G24   29.75R
PRESTON        CLOUDY    42  38  86 NW15G21   29.71R
$$
ABBREVIATIONS USED IN REMARKS
   TC - TEMPERATURES IN CELSIUS
  WCI - WIND CHILL INDEX
   HX - HEAT INDEX
  VSB - VISIBILITY
$$



USA.gov is the U.S. government's official web portal to all federal, state and local government web resources and services.